{"data":{"norad_id":63700,"intl_designator":"2025-087D","name":"STARLINK-33908","alt_names":[],"object_type":"PAYLOAD","status":"ACTIVE","operator":null,"country":"US","launch_date":"2025-04-28","launch_site_code":"AFWTR","launch_vehicle":null,"mission":null,"orbit_class":"UNKNOWN","rcs_meters":null,"size_class":null,"mass_kg":null,"dimensions":null,"purposes":["comms"],"wikipedia_slug":null,"has_3d_model":false,"image_url":null,"decayed_at":null,"tle_current":{"epoch":"2026-05-25T04:38:59.472960Z","epoch_age_seconds":52254,"freshness":"FRESH","line1":"1 63700U 25087D   26145.19374390  .00017013  00000+0  58514-3 0  9999","line2":"2 63700  53.1603 224.1363 0001415 111.2018 248.9134 15.30204646 60910","mean_motion":15.30204646,"eccentricity":0.0001415,"inclination_deg":53.1603,"raan_deg":224.1363,"arg_perigee_deg":111.2018,"mean_anomaly_deg":248.9134,"bstar":0.00058514,"rev_number":6091,"period_min":94.105059984245,"perigee_km":474.23144998095,"apogee_km":476.17094469079,"semimajor_km":6853.3381973359,"source":"CELESTRAK","updated_at":"2026-05-25T13:38:20.096215Z"}}}